Weather History for KLSV - October, 2013

Change the Weather History Date:

Monday, October 28, 2013

  Actual Average Record
Temperature  
Mean Temperature 64 °F -  
Max Temperature 69 °F 71 °F 89 °F (2003)
Min Temperature 56 °F 48 °F 39 °F (1996)
Degree Days  
Heating Degree Days 2    
Growing Degree Days 14 (Base 50)    
Moisture  
Dew Point 31 °F    
Average Humidity 30    
Maximum Humidity 43    
Minimum Humidity 22    
Precipitation  
Precipitation 0.00 in - - ()
Sea Level Pressure  
Sea Level Pressure 29.59 in    
Wind  
Wind Speed 26 mph (SSW)    
Max Wind Speed 34 mph    
Max Gust Speed 48 mph    
Visibility 10 miles    
Events      
Averages and records for this station are not official NWS values.
T = Trace of Precipitation, MM = Missing Value Source: NWS Daily Summary

Daily Weather History Graph

Daily Weather History Graph

Search for Another Location

Airport or City:

Trip Planner

Search our weather history database for the weather conditions in past years. The results will help you decide how hot, cold, wet, or windy it might be!

Date:

Astronomy

Oct. 28, 2013 Rise Set
Actual Time 6:59 AM PDT 5:47 PM PDT
Civil Twilight 6:33 AM PDT 6:14 PM PDT
Nautical Twilight 6:02 AM PDT 6:44 PM PDT
Astronomical Twilight 5:32 AM PDT 7:14 PM PDT
Moon 1:06 AM PDT (10/28) 2:22 PM PDT (10/28)
Length of Visible Light 11h 41m
Length of Day
10h 48m
Waning Crescent, 33% of the Moon is Illuminated
Oct 28
Waning Crescent
Nov 3
New
Nov 9
First Quarter
Nov 17
Full
Nov 25
Last Quarter

Hourly Weather History & Observations

Time (PDT) Temp. Dew Point Humidity Pressure Visibility Wind Dir Wind Speed Gust Speed Precip Events Conditions
12:58 AM 70.0 °F 33.3 °F 26% 29.46 in 10.0 mi South 28.8 mph 34.5 mph N/A   Clear
1:58 AM 69.1 °F 33.4 °F 27% 29.45 in 10.0 mi South 29.9 mph 39.1 mph N/A   Clear
2:58 AM 68.0 °F 32.4 °F 27% 29.43 in 10.0 mi South 28.8 mph 41.4 mph N/A   Clear
3:58 AM 66.9 °F 33.1 °F 28% 29.42 in 10.0 mi South 28.8 mph 38.0 mph N/A   Clear
4:58 AM 66.6 °F 31.6 °F 27% 29.42 in 10.0 mi South 29.9 mph 38.0 mph N/A   Clear
5:58 AM 65.1 °F 34.2 °F 32% 29.46 in 10.0 mi South 25.3 mph 39.1 mph N/A   Clear
6:58 AM 63.3 °F 33.3 °F 33% 29.51 in 10.0 mi SSW 25.3 mph 34.5 mph N/A   Clear
7:58 AM 62.8 °F 34.2 °F 34% 29.55 in 10.0 mi SW 23.0 mph 41.4 mph N/A   Clear
8:58 AM 63.3 °F 35.6 °F 36% 29.59 in 10.0 mi SW 31.1 mph 36.8 mph N/A   Partly Cloudy
9:58 AM 64.0 °F 33.4 °F 32% 29.61 in 10.0 mi SSW 29.9 mph 40.3 mph N/A   Clear
10:58 AM 64.0 °F 32.4 °F 31% 29.61 in 9.0 mi SSW 34.5 mph 46.0 mph N/A   Clear
11:58 AM 65.3 °F 30.9 °F 28% 29.62 in 10.0 mi South 32.2 mph 48.3 mph N/A   Clear
12:58 PM 65.5 °F 28.8 °F 25% 29.61 in 10.0 mi SW 33.4 mph 39.1 mph N/A   Partly Cloudy
1:58 PM 65.3 °F 27.7 °F 24% 29.60 in 10.0 mi SW 25.3 mph - N/A   Clear
2:58 PM 66.0 °F 26.2 °F 22% 29.60 in 10.0 mi SW 27.6 mph 40.3 mph N/A   Clear
3:58 PM 65.3 °F 26.8 °F 23% 29.58 in 8.0 mi South 23.0 mph 38.0 mph N/A   Clear
4:55 PM 64.4 °F 27.5 °F 25% 29.64 in 10.0 mi SSW 19.6 mph 33.4 mph N/A   Clear
5:58 PM 63.1 °F 28.8 °F 27% 29.62 in 10.0 mi SW 18.4 mph 25.3 mph N/A   Clear
6:00 PM 62.6 °F 28.4 °F 27% 29.66 in 10.0 mi WSW 12.7 mph - N/A   Clear
6:20 PM 62.6 °F 30.2 °F 30% 29.66 in 10.0 mi WSW 15.0 mph - N/A   Clear
6:58 PM 61.3 °F 30.0 °F 31% 29.64 in 10.0 mi SW 12.7 mph - N/A   Clear
7:58 PM 59.9 °F 30.9 °F 33% 29.67 in 10.0 mi SSW 10.4 mph - N/A   Clear
8:58 PM 59.0 °F 31.3 °F 35% 29.68 in 10.0 mi South 11.5 mph - N/A   Clear
9:58 PM 57.9 °F 32.0 °F 37% 29.71 in 10.0 mi SSW 16.1 mph - N/A   Scattered Clouds
10:58 PM 57.2 °F 32.7 °F 40% 29.74 in 10.0 mi SSW 11.5 mph - N/A   Clear
11:58 PM 56.5 °F 34.3 °F 43% 29.74 in 10.0 mi SSW 23.0 mph - N/A   Clear